TimeCST,TemperatureF,Dew PointF,Humidity,Sea Level PressureIn,VisibilityMPH,Wind Direction,Wind SpeedMPH,Gust SpeedMPH,PrecipitationIn,Events,Conditions,WindDirDegrees,DateUTC
12:54 AM,37.0,30.0,76,29.95,10.0,WNW,3.5,-,N/A,,Overcast,300,2013-02-13 06:54:00
1:54 AM,36.0,30.0,79,29.93,10.0,Calm,Calm,-,N/A,,Overcast,0,2013-02-13 07:54:00
2:54 AM,35.1,30.0,82,29.92,10.0,WNW,3.5,-,N/A,,Overcast,300,2013-02-13 08:54:00
3:54 AM,36.0,30.0,79,29.89,10.0,Calm,Calm,-,N/A,,Scattered Clouds,0,2013-02-13 09:54:00
4:54 AM,36.0,28.0,73,29.88,10.0,West,4.6,-,N/A,,Scattered Clouds,260,2013-02-13 10:54:00
5:54 AM,34.0,28.0,79,29.88,10.0,Calm,Calm,-,N/A,,Clear,0,2013-02-13 11:54:00
6:54 AM,33.1,28.0,82,29.89,10.0,WSW,3.5,-,N/A,,Clear,240,2013-02-13 12:54:00
7:54 AM,33.1,28.0,82,29.90,8.0,SSW,3.5,-,N/A,,Clear,210,2013-02-13 13:54:00
8:54 AM,37.0,30.0,76,29.90,8.0,SW,3.5,-,N/A,,Clear,230,2013-02-13 14:54:00
9:54 AM,42.1,28.0,58,29.89,10.0,West,6.9,-,N/A,,Clear,260,2013-02-13 15:54:00
10:54 AM,45.0,28.9,53,29.87,10.0,WSW,8.1,-,N/A,,Clear,250,2013-02-13 16:54:00
11:54 AM,48.9,30.0,48,29.86,10.0,WSW,8.1,-,N/A,,Clear,250,2013-02-13 17:54:00
12:54 PM,51.1,28.0,41,29.83,10.0,West,12.7,-,N/A,,Clear,270,2013-02-13 18:54:00
1:54 PM,51.1,27.0,39,29.81,10.0,West,9.2,-,N/A,,Clear,270,2013-02-13 19:54:00
2:54 PM,53.1,28.0,38,29.81,10.0,West,13.8,-,N/A,,Clear,280,2013-02-13 20:54:00
3:54 PM,53.1,27.0,37,29.81,10.0,West,13.8,19.6,N/A,,Clear,280,2013-02-13 21:54:00
4:54 PM,50.0,28.0,43,29.82,10.0,West,11.5,-,N/A,,Clear,270,2013-02-13 22:54:00
5:54 PM,46.9,30.0,52,29.83,10.0,West,5.8,-,N/A,,Clear,270,2013-02-13 23:54:00
6:54 PM,42.1,30.9,65,29.84,10.0,West,4.6,-,N/A,,Clear,270,2013-02-14 00:54:00
7:54 PM,37.9,30.9,76,29.85,10.0,Calm,Calm,-,N/A,,Clear,0,2013-02-14 01:54:00
8:54 PM,37.9,28.9,70,29.86,10.0,SW,5.8,-,N/A,,Clear,230,2013-02-14 02:54:00
9:54 PM,39.9,30.9,70,29.86,10.0,WSW,9.2,-,N/A,,Clear,240,2013-02-14 03:54:00
10:54 PM,37.0,30.9,79,29.86,10.0,SW,6.9,-,N/A,,Clear,230,2013-02-14 04:54:00
11:54 PM,37.0,30.9,79,29.85,10.0,SSW,3.5,-,N/A,,Clear,210,2013-02-14 05:54:00